Showing default

COSMOS 1561, 15000

Orbit data source: Space-Track

COSMOS 1561, 15000 is a payload satellite owned by GUKOS (CIS) in LEO that was launched on Mon, 28 May 1984 UTC via a KOSMOS 11K65M launch vehicle from the Plesetsk Missile And Space Complex (PKMTR). Payloads include a variety of satellites, spacecraft, and rockets equipped with specific instruments for various scientific and technological missions. These include communications satellites like Starlink; space stations such as the ISS; scientific satellites like the Hubble; Earth observation satellites from companies like Planet Labs, Umbra, and HawkEye 360; GPS; miniature CubeSats for education and research; and military/defense satellites.

Loading next visibility...
COSMOS 1561 details
Identifier
15000, 1984-052C
Orbit
LEO
Last TLE update1 day ago
Origin
Flag of CISGUKOS (CIS)
ManufacturerNPO PM
MissionDefense Communications
Bus & MotorSTRELA-1 11F625, Unknown motor
Mass60 kg wet, 60 kg dry
Launch date (UTC)
1984-05-28 (41 years ago)
Launch vehicle
KOSMOS 11K65M
Launch site
Plesetsk Missile And Space Complex (PKMTR)
Object type
Payload
Rocket body
Debris
Shape & HBRSphere, 0.8 m
Radar Cross Section0.588 m², Medium (>0.1 m² and < 1m²)

Expand to show TLE details & history

TLE from 1 day ago
0 COSMOS 1561
1 15000U 84052C   25035.25144316  .00000004  00000-0  13588-3 0  9998
2 15000  74.0156 330.8652 0015903 277.0433 252.1007 12.47981076853617
Epoch: 2025-02-04T06:02Z
Definitive object data (Epoch: 2025-02-04T06:02:04.689Z)
Latitude10.5563°
Longitude-77.35874°
Altitude1,478.44 km
Speed7.123 km/s
True Right ascension09h 51m 16s
True Declination10° 30' 01"
Sunlit
Object was in full shadow at TLE epoch
Visualization TLE readout
Latitude-46.73364°
Longitude-58.61426°
Altitude1,481.881 km
Speed7.126 km/s
Apparent Right ascension09h 11m 02s
Apparent Declination-47° 44' 14"
Sunlit
Object is in daylight
Visualization observer readout
Local Sidereal Time19:02:51
Azimuth240.507° WSW
Elevation-65.797°
Doppler factor1
Orbital elements
Apogee altitude1,483.272 km
Perigee altitude1,458.307 km
Semi-major axis7,848.926 km
Eccentricity0.0015903
Inclination74.0156°
RAAN330.8652°
Arg. of periapsis277.0433°
True anomaly251.92739°
Mean anomaly252.1007°
Eccentric anomaly252.01404°
Mean motion3.12124 °/min
BSTAR0.00013588
Orbital period115.34 mins
Loading maneuver chart data...
Loading historical data...
Loading historical data...
Loading historical data...
Loading historical data...
Loading historical data...
Loading historical data...
Loading historical data...

COSMOS 1561 Visibility forecast

Observer location: undefined°, undefined

Span
Click to sort rows by Start time (UTC) header in descending order
Start Az.
Max El. time (UTC)
Max El. Az.
Max El.
End time (UTC)
End Az.
16 mins2025-02-05 19:40:57.458Z165.706° S2025-02-05 19:48:57.458Z97.954° ESE34.402°2025-02-05 19:56:57.458Z31.626° NE
14 mins2025-02-05 21:39:57.458Z233.655° WSW2025-02-05 21:46:57.458Z303.691° NW34.281°2025-02-05 21:53:57.458Z5.338° NNE
14 mins2025-02-06 05:49:57.458Z356.456° N2025-02-06 05:56:57.458Z71.364° E35.839°2025-02-06 06:03:57.458Z132.399° SE
13 mins2025-02-06 07:47:57.458Z320.671° NNW2025-02-06 07:53:57.458Z264.137° W32.541°2025-02-06 08:00:57.458Z200.877° SSW
|